User: anonymous   Login
Location: Caltech
(34.1382°N, 118.1253°W)
Time: 15:18:54
(UTC-07:00)
Language:

Iridium 94 - Orbit

View from above orbital plane
View from above orbital plane
View from above satellite
View from above satellite

Ground track
Ground track

The orbit data is extracted from the following two-line orbital elements,

1 27374U 02005C   18108.24475940  .58469441 -85873-7  19282-4 0  9999
2 27374  86.2998 124.3001 0093641 344.5221  17.2855 16.61324468860162
Epoch (UTC): 18 April 2018 05:52:27
Eccentricity: 0.0093641
inclination: 86.2998°
perigee height: 49 km
apogee height: 170 km
right ascension of ascending node: 124.3001°
argument of perigee: 344.5221°
revolutions per day: 16.61324468
mean anomaly at epoch: 17.2855°
orbit number at epoch: 86016

The dashed part of the orbit path shows where the satellite is in the earth's shadow,  

DLR